Regional Weather Roundup
Issued by NWS

Home | Current Version | Previous Version | Text Only | Print | Product List | Glossary On
Versions: 1 2 3 4 5 6 7 8 9 10 11 12 13 14 15 16 17 18 19 20 21 22 23 24 25 26 27
000
ASUS45 KTFX 240210
RWRMT
MONTANA REGIONAL WEATHER ROUNDUP
NATIONAL WEATHER SERVICE GREAT FALLS MT
800 PM MDT TUE AUG 23 2016

NOTE: "FAIR" INDICATES FEW OR NO CLOUDS BELOW 12000 FEET WITH NO
SIGNIFICANT WEATHER AND/OR OBSTRUCTIONS TO VISIBILITY.

MTZ001>007-043-240300-
WEST OF THE DIVIDE

CITY           SKY/WX    TMP DP  RH WIND       PRES   REMARKS
KALISPELL      MOCLDY    64  43  46 N13       30.16R
MISSOULA       PTCLDY    70  35  27 N8        30.13R
BUTTE          CLOUDY    63  29  27 NW12      30.20R
MULLAN PASS    CLEAR     55  36  48 VRB5      30.27R
EUREKA           N/A     66  43  42 W3        30.17R
HAMILTON         N/A     70  39  32 CALM      30.14R
LIBBY            N/A     70  43  37 W6        30.15R
PLAINS           N/A     74  38  27 CALM      30.11
THOMPSON FALLS   N/A     74  39  28 W3        30.14
$$

MTZ008-052>055-240300-
SOUTHWEST MONTANA

CITY           SKY/WX    TMP DP  RH WIND       PRES   REMARKS
BOZEMAN        CLOUDY    63  39  41 N6        30.14R
DILLON         CLEAR     66  27  23 NE9       30.14R
W YELLOWSTONE  CLEAR     64   9  11 NW7       30.19R
ENNIS          CLEAR     66  25  20 N12G20    30.20R
THREE FORKS      N/A     68  68 100 CALM      30.11R
TWIN BRIDGES     N/A     70  27  20 NW15      30.12R
$$

MTZ009-010-012-014-046-048-049-054-240300-
EAST SLOPES AND CENTRAL MONTANA

CITY           SKY/WX    TMP DP  RH WIND       PRES   REMARKS
CUT BANK       CLOUDY    58  43  57 N18G26    30.21R
GREAT FALLS    CLOUDY    62  40  44 N14       30.19R
MALMSTROM AFB  CLOUDY    62  42  47 N13G21    30.19R
HELENA         PTCLDY    67  40  37 N9        30.15R
CHOTEAU          N/A     61  41  48 N17G25    30.21R
CONRAD           N/A     61  48  62 NW15      30.20R
$$

MTZ011-013-016-021-045-047-050-051-240300-
NORTH CENTRAL MONTANA

CITY           SKY/WX    TMP DP  RH WIND       PRES   REMARKS
HAVRE          PTCLDY    59  51  75 W20G28    30.08R
LEWISTOWN      PTCLDY    60  43  53 NW10G21   30.18R
N BAR RANCH      N/A     57  43  58 NW25G33   30.16R
CHINOOK          N/A     63  48  59 W22G31    30.04R
$$

MTZ017>020-022>027-061-062-240300-
NORTHEAST MONTANA

CITY           SKY/WX    TMP DP  RH WIND       PRES   REMARKS
GLASGOW        PTCLDY    63  47  55 W23G32    29.95R
JORDAN           N/A     67  44  43 NW16G25   30.01R
SIDNEY         PTCLDY    69  46  43 W14G24    29.92R
WOLF POINT     CLOUDY    68  50  52 W22G32    29.93R
POPLAR           N/A     66  48  52 W21G28    29.91R
SCOBEY           N/A     64  45  50 W13       29.89R
$$

MTZ028>42-056>058-240300-
SOUTHCENTRAL AND SOUTHEAST MONTANA

CITY           SKY/WX    TMP DP  RH WIND       PRES   REMARKS
BAKER          CLEAR     68  35  29 NW9       29.99R
BILLINGS       PTCLDY    69  36  29 N13       30.08R
LIVINGSTON     PTCLDY    65  30  27 NW8       30.13R
MILES CITY     CLEAR     72  37  28 NW17      30.00R
FORSYTH          N/A     72  39  30 NW13G24   30.03R
LAUREL           N/A     70  34  26 N6        30.07
ROUNDUP          N/A     66  39  37 NW20      30.00R
$$

REGIONAL REPORTS...DAKOTAS

CITY           SKY/WX    TMP DP  RH WIND       PRES   REMARKS
WILLISTON      CLEAR     69  43  38 W16G25    29.89R
MINOT          CLEAR     69  45  41 SW6       29.82R
DICKINSON      CLEAR     61  36  39 W5        29.91S
CROSBY         MOCLDY    66  45  45 W15G21    29.85S
BISMARCK       CLEAR     67  47  48 W7        29.87R
GRAND FORKS    MOCLDY    74  68  81 W7        29.70R
FARGO          CLOUDY    79  64  60 S13       29.74R
BUFFALO SD       N/A     69  33  26 NW7       29.94R
RAPID CITY     PTCLDY    68  34  28 N7        30.00R
$$

REGIONAL REPORTS...WYOMING/IDAHO/WASHINGTON

CITY           SKY/WX    TMP DP  RH WIND       PRES   REMARKS
GILLETTE       CLEAR     66  28  24 N12       30.06R
SHERIDAN       CLEAR     60  44  55 W5        30.07R
BUFFALO WY     CLEAR     66  28  24 NW12      30.13R
CODY           CLEAR     64  25  22 N9        30.13R
YELLOWSTONE LA   N/A     58  11  15 VRB3      30.28R
IDAHO FALLS    CLEAR     72  24  16 S14       30.08R
SALMON         CLEAR     68  32  26 N9        30.09R
BOISE          CLEAR     78  24  13 NW13      30.05F
SPOKANE        MOCLDY    76  37  24 CALM      30.12R
$$

REGIONAL REPORTS...ALBERTA

CITY           SKY/WX    TMP DP  RH WIND       PRES   REMARKS
EDMONTON       MOCLDY    57  50  77 N7        30.18R
CALGARY        MOCLDY    55  45  67 NW15G23   30.23R
LETHBRIDGE     CLOUDY    59  46  63 NW16G26   30.19R
MEDICINE HAT   CLOUDY    57  52  82 NW17G28   30.08R
WATERTON GATE    N/A     54  46  76 NE2         N/A
MILK RIVER       N/A     55  48  76 NW17G26     N/A
$$

REGIONAL REPORTS...SASKATCHEWAN

CITY           SKY/WX    TMP DP  RH WIND       PRES   REMARKS
SWIFT CURRENT  MOCLDY    54  52  94 NW22G33   29.88R
REGINA         MOCLDY    61  48  63 SW8       29.78R
SASKATOON      LGT RAIN  55  55 100 N13G18    29.83R
CYPRESS HILLS    N/A     50  46  87 NW13G26     N/A
VAL MARIE        N/A     57  46  67 NW18        N/A
ROCKGLEN         N/A     57  48  72 W15G23      N/A
ASSINIBOIA       N/A     57  54  88 NW12        N/A
$$




USA.gov is the U.S. government's official web portal to all federal, state and local government web resources and services.